Terminal Aerodrome Forecast
Issued by NWS Sioux Falls, SD

Home | Current Version | Previous Version | Text Only | Print | Product List | Glossary On
Versions: 1 2 3 4 5 6 7 8 9 10 11 12 13 14 15 16 17 18 19 20 21
000
FTUS43 KFSD 250116 AAA
TAFHON
TAF AMD
KHON 250116Z 2501/2524 31012G18KT P6SM -RA OVC022
     FM250400 33018G25KT 1SM -SN OVC012
     FM250700 34018G25KT 4SM -SN OVC012
     FM251000 34014G20KT P6SM OVC015
     FM251900 32008KT P6SM BKN030
     FM252200 VRB03KT P6SM SCT050 BKN200=

USA.gov is the U.S. government's official web portal to all federal, state and local government web resources and services.